Location: Lake Zurich
(42.1970°N, 88.0930°W)
Time: 10:58:36
(UTC-06:00)

Daily predictions for brighter satellites

Satellite Brightness Start Highest point End
(mag) Time Altitude Azimuth Time Altitude Azimuth Time Altitude Azimuth
Cosmos 1328 Rocket 3.7 17:14:34 10° N 17:18:57 58° E 17:23:20 10° SSE
Tsikada Rocket 4.1 17:14:50 10° S 17:21:13 88° E 17:27:41 10° N
MSX 3.8 17:16:28 10° SSE 17:22:08 68° ENE 17:27:50 10° N
Cosmos 1515 Rocket 3.7 17:22:42 10° N 17:27:05 52° ENE 17:31:26 10° SSE
Aureole 2 Rocket 4.3 17:28:28 10° SE 17:30:50 17° E 17:33:21 10° ENE
SKYMED 2 4.2 17:27:48 10° NNE 17:31:51 37° E 17:35:52 10° SSE
Cosmos 1151 Rocket 3.4 17:28:17 10° N 17:32:19 39° ENE 17:36:21 10° SSE
COSMOS 2441 4.3 17:28:26 10° SSE 17:33:16 71° ENE 17:38:07 10° N
BREEZE M DEB (TANK) 2.3 17:32:12 10° NW 17:35:19 33° NNE 17:37:00 13° E
Lacrosse 5 rocket 2.1 17:33:35 10° NNW 17:36:54 28° NE 17:40:18 10° E
Abrixas 4.3 17:35:44 10° S 17:37:53 19° SE 17:39:46 12° E
Cosmos 1844 Rocket 3.0 17:36:06 10° NNW 17:41:46 74° WSW 17:47:22 10° SSE
Cosmos 1500 Rocket 3.5 17:37:38 10° S 17:41:55 67° E 17:46:15 10° NNE
CZ-4 R/B 2.9 17:40:49 10° SSW 17:44:27 39° W 17:48:07 10° NNW
Meteor 1-28 Rocket 3.9 17:41:14 10° NNE 17:44:36 31° E 17:47:56 10° SSE
Cosmos 1634 Rocket 3.9 17:39:10 10° N 17:45:23 74° E 17:51:31 10° SSE
Cosmos 1763 Rocket 4.1 17:42:22 10° SSW 17:47:31 58° WNW 17:52:37 10° NNE
Cosmos 332 Rocket 4.0 17:46:36 10° SSW 17:51:25 73° WNW 17:56:18 10° NNE
Cosmos 372 Rocket 4.1 17:48:55 10° N 17:53:53 50° ENE 17:58:49 10° SE
Cosmos 1328 3.7 17:51:11 10° S 17:55:07 78° E 17:59:05 10° N
Sich 1 4.4 17:53:34 10° SE 17:56:36 18° E 17:57:08 18° ENE
Cosmos 2360 Rocket 4.2 17:53:37 10° WSW 17:58:03 23° NW 18:02:31 10° N
NOSS 0 Rocket 3.9 17:52:00 10° SSW 17:58:12 74° ESE 18:04:25 10° NNE
Cosmos 1980 3.7 17:54:15 10° SSW 17:59:53 71° ESE 18:05:33 10° NNE
Cosmos 2084 3.3 18:00:27 10° SW 18:04:20 73° NW 18:07:19 16° NNE
Cosmos 540 Rocket 3.4 17:59:57 10° S 18:05:05 73° ESE 18:10:15 10° NNE
FENGYUN 3A 4.5 18:02:20 10° ESE 18:06:47 28° ENE 18:11:16 10° N
OTV 4 2.4 18:05:08 10° WSW 18:07:36 24° SSW 18:09:45 12° SE
Meteor 2-10 3.9 18:03:46 10° N 18:08:50 64° ENE 18:13:59 10° SSE
SJ-6B 3.3 18:05:04 10° SE 18:08:51 40° ENE 18:12:44 10° N
Cosmos 44 3.4 18:04:16 10° SSW 18:09:32 78° ESE 18:13:37 16° NE
ALOS 3.2 18:05:50 10° ESE 18:09:41 26° ENE 18:13:34 10° NNE
USA 215 3.2 18:03:34 10° ESE 18:10:05 72° NE 18:16:37 10° NW
Cosmos 2333 Rocket 2.3 18:08:58 10° SSW 18:14:36 76° WNW 18:20:18 10° NNE
Cosmos 783 Rocket 4.5 18:11:20 10° S 18:16:36 71° ESE 18:21:48 11° NNE
METEOR-M 4.1 18:11:25 10° SSE 18:16:41 61° ENE 18:21:58 10° N
Cosmos 1461 3.8 18:14:14 10° S 18:17:51 28° ESE 18:18:18 28° ESE
Resurs 01 Rocket 2.4 18:17:34 28° ENE 18:17:58 28° ENE 18:21:47 10° N
COSMO-SKYMED 1 3.0 18:15:37 10° N 18:19:56 65° WNW 18:24:13 10° SSW
Cosmos 1703 3.5 18:16:25 10° SSE 18:20:09 45° E 18:21:52 27° NE
Cosmos 371 Rocket 4.1 18:16:41 10° SW 18:21:22 51° WNW 18:26:04 10° N
Cosmos 1707 Rocket 3.8 18:18:15 10° N 18:22:25 43° ENE 18:26:32 10° SSE
Cosmos 2219 Rocket 3.0 18:18:33 10° SW 18:24:01 50° WNW 18:29:31 10° NNE
Cosmos 2058 2.8 18:20:17 10° S 18:24:23 86° W 18:28:31 10° N
Cosmos 1125 Rocket 4.2 18:23:33 10° NNW 18:28:38 55° WSW 18:33:40 10° S
SL-19 R/B 4.4 18:24:15 10° SE 18:30:01 55° ENE 18:35:30 10° N
FREGAT/IRIS 3.8 18:27:25 10° SSE 18:32:17 21° N 18:33:30 10° N
Cosmos 2278 Rocket 2.6 18:25:15 10° NNW 18:30:54 67° WSW 18:36:31 10° SSE
Cosmos 1666 Rocket 3.7 18:29:11 10° SSE 18:33:19 46° E 18:34:05 41° ENE
Meteor 1-27 4.4 18:28:22 10° NNW 18:34:11 77° W 18:40:00 10° S
Cosmos 1626 2.3 18:30:40 10° S 18:34:03 50° ESE 18:34:03 50° ESE
Cosmos 2279 Rocket 4.1 18:30:15 10° N 18:36:28 77° W 18:42:40 10° S
Cosmos 1340 Rocket 2.8 18:34:07 10° SSW 18:38:04 77° W 18:40:58 18° N
Spot 2 Rocket 3.6 18:33:19 10° SE 18:38:07 47° ENE 18:42:57 10° N
NOAA 12 4.2 18:34:56 10° S 18:40:09 77° WSW 18:45:27 10° NNW
BREEZE-M DEB (TANK) 3.1 18:44:56 10° W 18:46:31 28° WNW 18:46:31 28° WNW
Cosmos 1538 Rocket 4.0 18:42:08 10° S 18:47:18 59° ESE 18:48:47 43° NE
Cosmos 1356 Rocket 3.2 18:43:44 10° S 18:47:32 68° ESE 18:47:32 68° ESE
USA 229 DEB 4.2 18:42:55 10° S 18:49:02 36° ESE 18:49:29 36° ESE
USA 229 4.2 18:43:03 10° S 18:49:08 36° ESE 18:49:32 35° ESE
Lacrosse 5 3.9 18:49:03 10° NW 18:51:58 15° N 18:52:57 14° N
CENTAUR R/B 4.2 18:48:24 10° W 18:53:46 28° NW 18:59:12 12° NNE
Cosmos 2237 Rocket 3.1 18:50:54 10° SW 18:56:16 46° WNW 19:01:05 13° N
Nadezhda 4 Rocket 3.9 18:50:59 10° S 18:57:13 80° E 19:03:33 10° N
Cosmos 2369 Rocket 4.2 18:57:21 10° N 18:58:25 13° NNE 18:58:25 13° NNE
SL-16 R/B 2.1 18:55:52 10° SSW 19:01:31 88° ESE 19:03:37 41° NNE
Aureole 1 Rocket 3.9 18:56:40 10° S 19:01:10 51° ESE 19:01:10 51° ESE
Cosmos 1900 4.2 18:59:05 10° NNW 19:04:03 89° NE 19:04:51 64° SSE
Cosmos 304 Rocket 4.1 19:00:03 10° SSW 19:04:49 63° WNW 19:06:45 35° N
Aureole 2 Rocket 4.2 19:02:33 10° SW 19:05:58 34° WNW 19:07:19 27° NNW
Cosmos 2297 4.0 19:05:31 10° NNW 19:11:11 67° WSW 19:16:50 10° SSE
Cosmos 1092 Rocket 3.9 19:09:14 10° S 19:15:33 80° E 19:20:04 21° N
Lacrosse 5 rocket 2.4 19:12:34 10° WNW 19:16:06 39° SW 19:16:06 39° SW
Sich 1 4.3 19:29:48 10° SSW 19:33:58 39° WNW 19:34:13 39° WNW
Cosmos 1633 Rocket 4.5 19:34:25 10° SSW 19:37:47 36° WSW 19:37:47 36° WSW
ALOS 3.9 19:42:48 10° SSW 19:46:59 33° W 19:51:12 10° NNW
Resurs 01 Rocket 3.6 19:55:07 26° WNW 19:55:07 26° WNW 19:58:13 10° NW
